Qianfan 05-09

operational
NORAD ID: 63167 Int'l Des: 2025-046 Owner: YUANX Country: CN Constellation: qianfan
LEOCIRCULARPOLAR

About Qianfan 05-09

Description loading...

Live Position

Loading 3D Globe...

Upcoming Passes

Altitude History

Altitude vs Time

uPlot chart will show altitude changes over time

Two-Line Element Set

1 63167U 25046J 25303.75434426 .00000135 00000-0 19059-3 0 9994
2 63167 88.9769 324.3251 0012978 241.2151 118.7697 13.50990897 41684
Epoch: Oct 30, 2025 • Age: 7 hours

Current Status

Altitude 1076.5 km
Velocity 7.31 km/s
Sub-Earth Point -7.05°S, 93.13°W
Launch Date Mar 11, 2025
Age 0.6 years
Type internet

Technical Details

Classification Payload
Mass 267.00 kg
Dry Mass 267.00 kg
Total Mass 267.00 kg
Length 0.30 m
Diameter 3.00 m
Span 10.00 m
Shape Box+pan
Manufacturer GESIH
Bus Type Qianfan
Phase Status In Orbit
Owner/State YUANX/CN

Large Constellations

Loading constellations...